Simultaneous Nadir Overpasses (SNOs) Predictions

Prediction of SNOs between AQUA and METOP-A Satellite Orbit:

Table of predicted SNOs for the next 14.0 days since TLE Epoch: 5/13/2016
Index Date (AQUA) Time (AQUA) Lat,Lon (AQUA) SZA (AQUA ) Date (METOP-A) Time (METOP-A) Lat,Lon (METOP-A) SZA (METOP-A ) Distance(km) Time Diff (sec)
1 05/14/2016 04:48:36 73.89, 102.01 55.14 05/14/2016 04:48:11 73.87, 102.01 55.13 1.88 25
2 05/14/2016 05:38:03 -73.96, -90.51 124.79 05/14/2016 05:38:51 -73.95, -90.49 124.81 1.94 48
3 05/16/2016 23:33:12 -73.54, 1.59 125.88 05/16/2016 23:32:02 -73.46, 0.12 125.90 47.29 70
4 05/17/2016 00:22:46 73.89, 168.47 54.49 05/17/2016 00:22:33 73.91, 168.51 54.51 2.95 13
5 05/17/2016 01:12:13 -73.96, -24.04 125.45 05/17/2016 01:13:14 -73.94, -24.10 125.47 3.04 61
6 05/19/2016 19:07:28 -73.86, 67.35 126.14 05/19/2016 19:06:17 -73.85, 67.42 126.15 2.85 71
7 05/19/2016 19:56:56 73.90,-125.09 53.89 05/19/2016 19:56:56 73.90,-125.12 53.89 0.83 0
8 05/19/2016 20:46:23 -73.97, 42.39 126.05 05/19/2016 20:47:36 -73.97, 42.39 126.05 0.55 73
9 05/22/2016 14:41:36 -73.83, 133.87 126.74 05/22/2016 14:40:39 -73.83, 133.79 126.73 2.67 57
10 05/22/2016 15:31:05 73.92, -58.69 53.36 05/22/2016 15:31:17 73.93, -58.64 53.36 1.75 12
11 05/22/2016 16:20:41 -74.45, 107.72 126.09 05/22/2016 16:21:48 -74.45, 109.99 126.16 67.71 67
12 05/25/2016 10:15:46 -73.87,-159.76 127.21 05/25/2016 10:15:01 -73.86,-159.74 127.22 1.63 45
13 05/25/2016 11:05:14 73.91, 7.79 52.83 05/25/2016 11:05:40 73.91, 7.71 52.83 2.50 26




NCC Satellite Simultaneous Nadir Overpasses (SNOs) Prediction Service
